Time,TemperatureF,DewpointF,PressureIn,WindDirection,WindDirectionDegrees,WindSpeedMPH,WindSpeedGustMPH,Humidity,HourlyPrecipIn,Conditions,Clouds,dailyrainin,SolarRadiationWatts/m^2,SoftwareType,DateUTC
2013-10-16 00:04:00,50.0,48.0,-100.00,SE,130,0.0,3.0,94,0.00,,,0.01,0.000000,,2013-10-16 04:04:00,
2013-10-16 00:10:00,48.0,46.0,-100.00,NE,56,0.0,2.0,94,0.00,,,0.01,0.000000,,2013-10-16 04:10:00,
2013-10-16 00:44:00,48.0,46.0,-100.00,NE,56,0.0,2.0,94,0.00,,,0.01,0.000000,,2013-10-16 04:44:00,
2013-10-16 00:54:00,48.0,46.0,-100.00,NE,56,0.0,2.0,94,0.00,,,0.01,0.000000,,2013-10-16 04:54:00,
2013-10-16 01:04:00,48.0,46.0,-100.00,NE,56,0.0,2.0,94,0.00,,,0.01,0.000000,,2013-10-16 05:04:00,
2013-10-16 01:10:00,46.0,45.0,-100.00,ESE,109,1.0,3.0,95,0.00,,,0.01,0.000000,,2013-10-16 05:10:00,
2013-10-16 01:43:00,46.0,45.0,-100.00,ESE,109,1.0,3.0,95,0.00,,,0.01,0.000000,,2013-10-16 05:43:00,
2013-10-16 01:53:00,46.0,45.0,-100.00,ESE,109,1.0,3.0,95,0.00,,,0.01,0.000000,,2013-10-16 05:53:00,
2013-10-16 02:03:00,46.0,45.0,-100.00,ESE,109,1.0,3.0,95,0.00,,,0.01,0.000000,,2013-10-16 06:03:00,
2013-10-16 02:10:00,44.0,43.0,-100.00,East,94,1.0,2.0,95,0.00,,,0.01,0.000000,,2013-10-16 06:10:00,
2013-10-16 02:43:00,44.0,43.0,-100.00,East,94,1.0,2.0,95,0.00,,,0.01,0.000000,,2013-10-16 06:43:00,
2013-10-16 02:52:00,44.0,43.0,-100.00,East,94,1.0,2.0,95,0.00,,,0.01,0.000000,,2013-10-16 06:52:00,
2013-10-16 03:02:00,44.0,43.0,-100.00,East,94,1.0,2.0,95,0.00,,,0.01,0.000000,,2013-10-16 07:02:00,
2013-10-16 03:10:00,44.0,43.0,-100.00,ENE,70,1.0,3.0,95,0.00,,,0.01,0.000000,,2013-10-16 07:10:00,
2013-10-16 03:42:00,44.0,43.0,-100.00,ENE,70,1.0,3.0,95,0.00,,,0.01,0.000000,,2013-10-16 07:42:00,
2013-10-16 03:53:00,44.0,43.0,-100.00,ENE,70,1.0,3.0,95,0.00,,,0.01,0.000000,,2013-10-16 07:53:00,
2013-10-16 04:02:00,44.0,43.0,-100.00,ENE,70,1.0,3.0,95,0.00,,,0.01,0.000000,,2013-10-16 08:02:00,
2013-10-16 04:10:00,44.0,43.0,-100.00,North,1,1.0,3.0,96,0.00,,,0.01,0.000000,,2013-10-16 08:10:00,
2013-10-16 04:42:00,44.0,43.0,-100.00,North,1,1.0,3.0,96,0.00,,,0.01,0.000000,,2013-10-16 08:42:00,
2013-10-16 04:52:00,44.0,43.0,-100.00,North,1,1.0,3.0,96,0.00,,,0.01,0.000000,,2013-10-16 08:52:00,
2013-10-16 05:02:00,44.0,43.0,-100.00,North,1,1.0,3.0,96,0.00,,,0.01,0.000000,,2013-10-16 09:02:00,
2013-10-16 05:10:00,43.0,42.0,-100.00,SSE,158,0.0,2.0,96,0.00,,,0.01,0.000000,,2013-10-16 09:10:00,
2013-10-16 05:43:00,43.0,42.0,-100.00,SSE,158,0.0,2.0,96,0.00,,,0.01,0.000000,,2013-10-16 09:43:00,
2013-10-16 05:54:00,43.0,42.0,-100.00,SSE,158,0.0,2.0,96,0.00,,,0.01,0.000000,,2013-10-16 09:54:00,
2013-10-16 06:03:00,43.0,42.0,-100.00,SSE,158,0.0,2.0,96,0.00,,,0.01,0.000000,,2013-10-16 10:03:00,
2013-10-16 06:10:00,43.0,42.0,-100.00,ENE,76,0.0,2.0,96,0.00,,,0.01,0.000000,,2013-10-16 10:10:00,
2013-10-16 06:42:00,43.0,42.0,-100.00,ENE,76,0.0,2.0,96,0.00,,,0.01,0.000000,,2013-10-16 10:42:00,
2013-10-16 06:53:00,43.0,42.0,-100.00,ENE,76,0.0,2.0,96,0.00,,,0.01,0.000000,,2013-10-16 10:53:00,
2013-10-16 07:03:00,43.0,42.0,-100.00,ENE,76,0.0,2.0,96,0.00,,,0.01,0.000000,,2013-10-16 11:03:00,
2013-10-16 07:10:00,43.0,42.0,-100.00,East,95,1.0,3.0,96,0.00,,,0.01,1.000000,,2013-10-16 11:10:00,
2013-10-16 07:42:00,43.0,42.0,-100.00,East,95,1.0,3.0,96,0.00,,,0.01,1.000000,,2013-10-16 11:42:00,
2013-10-16 07:52:00,43.0,42.0,-100.00,East,95,1.0,3.0,96,0.00,,,0.01,1.000000,,2013-10-16 11:52:00,
2013-10-16 08:02:00,43.0,42.0,-100.00,East,95,1.0,3.0,96,0.00,,,0.01,1.000000,,2013-10-16 12:02:00,
2013-10-16 08:10:00,45.0,44.0,-100.00,NNW,348,1.0,2.0,96,0.00,,,0.00,28.000000,,2013-10-16 12:10:00,
2013-10-16 08:43:00,45.0,44.0,-100.00,NNW,348,1.0,2.0,96,0.00,,,0.00,28.000000,,2013-10-16 12:43:00,
2013-10-16 08:52:00,45.0,44.0,-100.00,NNW,348,1.0,2.0,96,0.00,,,0.00,28.000000,,2013-10-16 12:52:00,
2013-10-16 09:02:00,45.0,44.0,-100.00,NNW,348,1.0,2.0,96,0.00,,,0.00,28.000000,,2013-10-16 13:02:00,
2013-10-16 09:10:00,48.0,47.0,-100.00,SE,138,1.0,3.0,96,0.00,,,0.00,76.000000,,2013-10-16 13:10:00,
2013-10-16 09:42:00,48.0,47.0,-100.00,SE,138,1.0,3.0,96,0.00,,,0.00,76.000000,,2013-10-16 13:42:00,
2013-10-16 09:52:00,48.0,47.0,-100.00,SE,138,1.0,3.0,96,0.00,,,0.00,76.000000,,2013-10-16 13:52:00,
2013-10-16 10:02:00,48.0,47.0,-100.00,SE,138,1.0,3.0,96,0.00,,,0.00,76.000000,,2013-10-16 14:02:00,
2013-10-16 10:10:00,52.0,51.0,-100.00,WNW,284,1.0,3.0,96,-99.99,,,0.00,114.000000,,2013-10-16 14:10:00,
2013-10-16 10:42:00,52.0,51.0,-100.00,WNW,284,1.0,3.0,96,-99.99,,,0.00,114.000000,,2013-10-16 14:42:00,
2013-10-16 10:52:00,52.0,51.0,-100.00,WNW,284,1.0,3.0,96,-99.99,,,0.00,114.000000,,2013-10-16 14:52:00,
2013-10-16 11:02:00,52.0,51.0,-100.00,WNW,284,1.0,3.0,96,-99.99,,,0.00,114.000000,,2013-10-16 15:02:00,
2013-10-16 11:10:00,58.0,53.0,-100.00,West,264,2.0,4.0,84,0.00,,,0.00,185.000000,,2013-10-16 15:10:00,
2013-10-16 11:44:00,58.0,53.0,-100.00,West,264,2.0,4.0,84,0.00,,,0.00,185.000000,,2013-10-16 15:44:00,
2013-10-16 11:53:00,58.0,53.0,-100.00,West,264,2.0,4.0,84,0.00,,,0.00,185.000000,,2013-10-16 15:53:00,
2013-10-16 12:03:00,58.0,53.0,-100.00,West,264,2.0,4.0,84,0.00,,,0.00,185.000000,,2013-10-16 16:03:00,
2013-10-16 12:10:00,63.0,51.0,-100.00,NE,50,2.0,6.0,66,0.00,,,0.00,197.000000,,2013-10-16 16:10:00,
2013-10-16 12:42:00,63.0,51.0,-100.00,NE,50,2.0,6.0,66,0.00,,,0.00,197.000000,,2013-10-16 16:42:00,
2013-10-16 12:53:00,63.0,51.0,-100.00,NE,50,2.0,6.0,66,0.00,,,0.00,197.000000,,2013-10-16 16:53:00,
2013-10-16 13:02:00,63.0,51.0,-100.00,NE,50,2.0,6.0,66,0.00,,,0.00,197.000000,,2013-10-16 17:02:00,
2013-10-16 13:10:00,65.0,48.0,-100.00,SE,133,3.0,8.0,55,0.00,,,0.00,223.000000,,2013-10-16 17:10:00,
2013-10-16 13:43:00,65.0,48.0,-100.00,SE,133,3.0,8.0,55,0.00,,,0.00,223.000000,,2013-10-16 17:43:00,
2013-10-16 13:52:00,65.0,48.0,-100.00,SE,133,3.0,8.0,55,0.00,,,0.00,223.000000,,2013-10-16 17:52:00,
2013-10-16 14:02:00,65.0,48.0,-100.00,SE,133,3.0,8.0,55,0.00,,,0.00,223.000000,,2013-10-16 18:02:00,
2013-10-16 14:10:00,70.0,48.0,-100.00,SW,225,4.0,8.0,46,0.00,,,0.00,354.000000,,2013-10-16 18:10:00,
2013-10-16 14:42:00,70.0,48.0,-100.00,SW,225,4.0,8.0,46,0.00,,,0.00,354.000000,,2013-10-16 18:42:00,
2013-10-16 14:52:00,70.0,48.0,-100.00,SW,225,4.0,8.0,46,0.00,,,0.00,354.000000,,2013-10-16 18:52:00,
2013-10-16 15:02:00,70.0,48.0,-100.00,SW,225,4.0,8.0,46,0.00,,,0.00,354.000000,,2013-10-16 19:02:00,
2013-10-16 15:10:00,68.0,45.0,-100.00,SW,234,3.0,9.0,43,0.00,,,0.00,123.000000,,2013-10-16 19:10:00,
2013-10-16 15:42:00,68.0,45.0,-100.00,SW,234,3.0,9.0,43,0.00,,,0.00,123.000000,,2013-10-16 19:42:00,
2013-10-16 15:52:00,68.0,45.0,-100.00,SW,234,3.0,9.0,43,0.00,,,0.00,123.000000,,2013-10-16 19:52:00,
2013-10-16 16:03:00,68.0,45.0,-100.00,SW,234,3.0,9.0,43,0.00,,,0.00,123.000000,,2013-10-16 20:03:00,
2013-10-16 16:10:00,67.0,42.0,-100.00,SW,236,3.0,7.0,40,0.00,,,0.00,134.000000,,2013-10-16 20:10:00,
2013-10-16 16:43:00,67.0,42.0,-100.00,SW,236,3.0,7.0,40,0.00,,,0.00,134.000000,,2013-10-16 20:43:00,
2013-10-16 16:52:00,67.0,42.0,-100.00,SW,236,3.0,7.0,40,0.00,,,0.00,134.000000,,2013-10-16 20:52:00,
2013-10-16 17:02:00,67.0,42.0,-100.00,SW,236,3.0,7.0,40,0.00,,,0.00,134.000000,,2013-10-16 21:02:00,
2013-10-16 17:10:00,64.0,43.0,-100.00,West,266,2.0,5.0,46,0.00,,,0.00,89.000000,,2013-10-16 21:10:00,
2013-10-16 17:44:00,64.0,43.0,-100.00,West,266,2.0,5.0,46,0.00,,,0.00,89.000000,,2013-10-16 21:44:00,
2013-10-16 17:54:00,64.0,43.0,-100.00,West,266,2.0,5.0,46,0.00,,,0.00,89.000000,,2013-10-16 21:54:00,
2013-10-16 18:04:00,64.0,43.0,-100.00,West,266,2.0,5.0,46,0.00,,,0.00,89.000000,,2013-10-16 22:04:00,
2013-10-16 18:10:00,58.0,47.0,-100.00,East,97,1.0,4.0,66,0.00,,,0.00,11.000000,,2013-10-16 22:10:00,
2013-10-16 18:42:00,58.0,47.0,-100.00,East,97,1.0,4.0,66,0.00,,,0.00,11.000000,,2013-10-16 22:42:00,
2013-10-16 18:54:00,58.0,47.0,-100.00,East,97,1.0,4.0,66,0.00,,,0.00,11.000000,,2013-10-16 22:54:00,
2013-10-16 19:03:00,58.0,47.0,-100.00,East,97,1.0,4.0,66,0.00,,,0.00,11.000000,,2013-10-16 23:03:00,
2013-10-16 19:10:00,56.0,49.0,-100.00,SE,134,1.0,3.0,77,0.00,,,0.00,0.000000,,2013-10-16 23:10:00,
2013-10-16 19:42:00,56.0,49.0,-100.00,SE,134,1.0,3.0,77,0.00,,,0.00,0.000000,,2013-10-16 23:42:00,
2013-10-16 19:53:00,56.0,49.0,-100.00,SE,134,1.0,3.0,77,0.00,,,0.00,0.000000,,2013-10-16 23:53:00,
2013-10-16 20:02:00,56.0,49.0,-100.00,SE,134,1.0,3.0,77,0.00,,,0.00,0.000000,,2013-10-17 00:02:00,
2013-10-16 20:10:00,52.0,47.0,-100.00,East,80,1.0,3.0,83,0.00,,,0.00,0.000000,,2013-10-17 00:10:00,
2013-10-16 20:42:00,52.0,47.0,-100.00,East,80,1.0,3.0,83,0.00,,,0.00,0.000000,,2013-10-17 00:42:00,
2013-10-16 20:52:00,52.0,47.0,-100.00,East,80,1.0,3.0,83,0.00,,,0.00,0.000000,,2013-10-17 00:52:00,
2013-10-16 21:02:00,52.0,47.0,-100.00,East,80,1.0,3.0,83,0.00,,,0.00,0.000000,,2013-10-17 01:02:00,
2013-10-16 21:10:00,48.0,45.0,-100.00,East,98,2.0,3.0,88,0.00,,,0.00,0.000000,,2013-10-17 01:10:00,
2013-10-16 21:43:00,48.0,45.0,-100.00,East,98,2.0,3.0,88,0.00,,,0.00,0.000000,,2013-10-17 01:43:00,
2013-10-16 21:52:00,48.0,45.0,-100.00,East,98,2.0,3.0,88,0.00,,,0.00,0.000000,,2013-10-17 01:52:00,
2013-10-16 22:03:00,48.0,45.0,-100.00,East,98,2.0,3.0,88,0.00,,,0.00,0.000000,,2013-10-17 02:03:00,
2013-10-16 22:10:00,49.0,46.0,-100.00,ESE,103,0.0,3.0,89,0.00,,,0.00,0.000000,,2013-10-17 02:10:00,
2013-10-16 22:53:00,49.0,46.0,-100.00,ESE,103,0.0,3.0,89,0.00,,,0.00,0.000000,,2013-10-17 02:53:00,
2013-10-16 23:02:00,49.0,46.0,-100.00,ESE,103,0.0,3.0,89,0.00,,,0.00,0.000000,,2013-10-17 03:02:00,
2013-10-16 23:10:00,48.0,45.0,-100.00,North,7,0.0,2.0,90,0.00,,,0.00,0.000000,,2013-10-17 03:10:00,
2013-10-16 23:45:00,48.0,45.0,-100.00,North,7,0.0,2.0,90,0.00,,,0.00,0.000000,,2013-10-17 03:45:00,
2013-10-16 23:54:00,48.0,45.0,-100.00,North,7,0.0,2.0,90,0.00,,,0.00,0.000000,,2013-10-17 03:54:00,